GFSGBSN_sfc_rhum_114.txt.gz
RH
96 95 94 92 91 90 89 89 90 91 91 90 89 86 84 79 75 72 69 72 74 72 69 70 71 75 42 13 7 15 58 58 31 21 13 12 12 11 11 11 14 19 12 13 15 15 13
91 97 95 94 92 91 90 90 91 91 92 91 90 88 86 83 77 73 70 74 74 74 69 68 70 79 33 17 10 15 25 32 21 17 14 13 12 12 14 15 16 16 18 16 13 13 11
90 90 96 96 96 94 92 91 91 92 92 91 90 89 88 85 81 74 72 74 76 73 68 68 70 52 37 17 14 18 24 19 16 16 16 16 15 16 14 14 14 14 16 11 11 9 12
86 91 90 91 97 95 94 94 94 93 93 92 92 90 90 87 84 78 75 76 75 69 70 73 70 50 25 16 18 22 13 19 19 16 15 13 13 16 17 17 18 18 17 14 13 15 13
87 87 89 91 92 96 96 96 96 94 94 93 94 93 91 90 86 81 75 73 69 73 74 73 61 54 20 27 23 20 16 14 16 16 17 13 15 19 20 20 17 18 10 11 11 13 14
87 88 87 89 93 94 95 96 95 94 94 96 95 95 94 92 87 80 72 68 63 73 56 49 46 48 21 11 23 17 27 18 16 17 18 18 17 19 19 18 14 11 13 12 14 11 14
88 90 89 88 90 92 92 94 95 96 96 96 96 96 95 92 84 78 56 43 36 43 51 28 22 20 17 25 24 14 15 15 16 18 21 20 20 20 16 16 17 18 18 16 12 13 18
86 88 90 90 88 89 90 93 96 96 96 96 96 96 94 88 82 77 46 46 32 38 38 24 26 24 22 31 25 16 15 16 19 19 17 23 23 16 17 18 19 19 19 17 15 17 16
84 85 84 87 89 88 88 89 94 96 95 96 96 95 91 86 77 62 45 43 34 34 32 23 16 19 21 28 16 14 16 14 17 16 18 19 13 19 19 18 22 20 21 20 18 12 10
84 84 85 84 84 88 89 90 91 97 96 96 96 94 89 80 78 52 38 43 38 51 57 39 16 16 21 19 19 14 13 13 15 16 15 19 14 20 20 20 18 21 14 15 16 16 14
81 84 85 85 85 87 89 92 94 94 96 96 96 92 84 76 76 64 42 60 58 62 86 25 23 17 18 16 16 15 14 15 18 19 22 20 20 21 23 20 17 18 18 19 20 21 22
78 80 85 84 84 86 88 91 94 96 97 97 94 89 83 80 62 62 68 57 57 60 66 29 20 23 22 18 18 15 15 15 17 19 18 18 19 18 17 18 19 18 23 20 22 25 30
77 79 80 82 83 83 86 88 94 95 97 96 92 86 78 70 80 65 67 66 61 54 20 26 25 22 24 22 21 18 19 20 20 26 28 21 22 20 23 23 23 24 27 31 33 40 30
76 76 79 81 83 82 84 87 93 95 97 94 91 86 79 79 78 83 80 82 88 42 26 22 22 22 28 23 24 24 22 23 26 22 26 26 27 24 27 25 24 29 30 30 26 22 18
75 76 77 79 80 81 83 87 87 96 96 94 87 94 95 79 82 64 76 91 50 38 20 22 24 28 28 24 23 24 26 22 21 24 30 29 25 26 32 28 26 29 38 23 36 31 39
76 76 77 78 80 83 84 85 87 96 94 87 94 94 93 92 84 73 86 70 39 20 20 17 22 23 28 26 28 28 25 22 29 27 23 32 40 25 26 29 26 29 27 55 46 70 56
76 76 76 77 78 81 83 85 86 94 88 82 93 95 87 84 81 93 91 62 32 18 19 22 22 28 24 29 26 28 23 26 30 32 29 34 40 31 34 34 29 38 45 42 43 46 59
78 77 76 76 78 79 83 85 87 90 83 86 96 98 90 88 97 94 71 42 36 21 22 25 24 26 27 29 32 31 34 29 27 37 39 36 56 50 38 30 33 29 36 43 65 62 50
79 78 78 77 77 79 82 84 91 88 78 92 99 100 95 94 96 83 48 39 27 24 25 28 31 29 35 36 43 37 41 42 45 41 40 51 52 57 52 80 54 73 51 42 64 80 73
78 81 81 80 78 80 82 82 91 84 76 92 98 99 100 99 79 60 54 42 36 30 30 33 40 38 42 41 36 45 45 51 53 49 53 57 60 72 44 33 33 53 65 68 79 89 63
80 80 81 79 77 81 82 81 88 81 77 93 91 85 65 96 85 57 48 41 36 42 36 36 47 39 37 44 44 47 44 61 55 58 50 67 69 76 71 49 47 70 77 68 92 75 92
85 83 82 81 82 82 81 83 85 79 78 96 99 60 51 62 59 64 54 44 38 47 48 41 40 38 38 41 38 52 52 55 72 50 55 57 75 86 85 58 67 96 86 80 94 80 96
84 85 84 81 81 80 78 89 84 81 80 96 66 42 48 59 58 62 58 45 49 69 47 34 38 47 49 41 39 37 39 48 51 64 80 98 93 94 84 64 81 94 90 94 93 83 88
90 87 83 82 80 79 90 87 82 84 80 70 50 45 61 69 53 45 36 41 44 48 100 49 47 52 51 50 52 55 55 53 54 56 60 99 100 86 78 90 89 99 89 74 75 82 74
90 83 81 81 84 91 86 88 84 80 78 75 54 47 59 75 49 44 40 42 42 59 72 82 55 50 53 54 66 73 88 91 81 70 72 100 97 88 86 70 84 86 84 79 88 86 66
90 88 88 91 89 90 87 87 88 79 74 69 68 56 51 79 69 40 41 44 46 54 59 68 62 59 59 59 74 86 76 72 78 96 92 99 100 92 69 67 72 70 61 60 62 90 69
92 91 91 91 90 88 88 92 90 81 76 64 87 76 50 85 50 39 42 44 39 41 43 56 62 66 55 68 82 67 65 56 66 69 82 85 97 85 70 76 67 62 63 62 94 96 72
91 91 90 90 90 90 91 89 86 80 72 58 82 71 58 80 65 50 49 52 49 37 50 57 60 61 59 65 56 58 77 76 67 61 75 82 86 80 71 73 73 67 69 85 89 77 77
89 89 88 89 88 87 87 85 82 77 72 66 71 60 54 59 66 60 61 52 38 38 51 62 55 60 63 53 53 62 80 77 74 77 64 87 80 70 77 77 76 78 84 73 66 76 78

GFSGBSN_sfc_rhum_117.txt.gz
RH
95 96 94 95 93 91 90 90 91 92 92 92 92 90 86 80 79 77 72 72 73 72 71 67 68 71 42 21 15 23 61 49 24 17 11 9 10 10 10 8 7 8 9 7 6 9 11
90 95 95 98 97 98 97 94 95 94 93 92 92 91 88 85 83 79 74 73 75 74 72 67 68 76 29 31 8 8 12 17 14 12 9 8 7 7 9 9 10 9 9 10 8 9 8
87 88 92 96 96 97 96 96 96 96 95 94 93 92 90 88 85 83 75 74 75 75 71 66 68 40 31 27 11 10 12 9 10 9 10 10 11 14 10 11 9 10 11 8 7 6 7
88 88 88 90 92 95 97 97 96 96 96 96 94 94 94 91 89 86 80 76 76 73 68 75 72 35 37 13 10 10 9 10 10 9 11 10 11 12 12 10 12 11 12 13 8 9 8
86 87 88 89 90 94 95 96 96 96 95 96 96 96 96 94 92 85 80 75 73 66 74 72 59 41 32 25 13 12 10 9 10 12 13 11 12 13 12 17 15 12 14 14 9 8 9
80 84 87 89 91 91 94 95 96 96 97 97 96 96 96 95 93 89 80 70 61 74 62 38 33 44 24 12 15 12 14 10 11 14 15 16 13 14 14 14 17 15 12 10 11 8 8
76 80 85 89 91 91 90 94 96 94 97 96 96 96 97 95 92 83 75 47 49 51 42 37 28 26 15 15 16 12 17 18 12 13 18 14 16 17 14 13 12 14 15 14 10 8 9
82 81 79 82 88 91 90 90 93 96 95 96 97 98 96 93 87 82 64 55 33 35 46 29 26 23 18 15 20 14 11 15 18 18 15 16 22 16 11 12 15 17 15 13 10 9 11
79 84 81 78 77 82 88 90 92 96 96 97 98 97 95 91 85 72 53 35 26 24 41 34 26 24 21 17 21 14 13 14 14 17 16 17 16 12 14 14 17 16 15 15 14 12 10
77 80 84 82 81 83 84 86 90 94 97 97 97 96 93 88 85 56 45 29 29 36 66 35 24 17 16 17 20 12 8 15 14 16 14 14 11 13 13 16 14 17 11 13 14 15 17
74 77 80 84 85 86 86 87 88 91 96 97 98 94 88 80 68 54 40 32 38 44 74 22 17 11 14 15 14 14 9 10 14 14 15 17 13 17 17 14 13 18 14 16 17 18 20
75 75 78 80 82 87 87 87 88 91 94 98 96 91 86 75 60 49 40 43 53 71 71 28 19 22 20 14 14 12 13 12 12 14 14 16 13 14 14 13 14 14 17 19 20 21 30
68 76 77 78 79 82 85 86 88 89 95 98 94 89 83 56 80 50 54 52 90 72 23 25 23 20 19 20 18 16 18 20 19 26 26 17 16 14 17 19 16 20 25 36 37 32 31
73 70 74 76 77 80 82 84 88 89 95 98 93 88 82 74 65 64 69 82 96 32 30 18 19 19 24 20 19 19 19 19 17 19 22 29 36 17 16 22 18 17 23 34 39 33 24
73 72 73 73 76 77 79 83 86 89 93 96 93 97 91 91 82 68 86 98 55 38 25 22 19 24 25 22 23 22 24 21 17 20 30 25 21 16 21 18 20 21 25 20 33 30 36
70 71 75 75 75 76 78 82 85 89 95 92 96 96 97 87 84 90 98 87 50 30 21 18 27 24 28 24 27 25 24 19 20 21 20 26 36 16 16 20 21 26 17 39 38 60 48
70 72 71 74 76 77 78 82 86 89 92 84 93 98 97 88 84 98 96 57 40 22 18 23 24 24 24 25 23 25 21 20 23 24 21 19 33 26 22 25 26 23 35 31 30 45 57
71 70 69 74 74 76 78 80 86 88 88 87 96 99 97 89 98 99 75 51 48 24 18 20 23 22 25 23 25 24 26 20 21 22 33 25 42 43 26 17 19 22 27 32 58 48 53
72 73 73 77 77 76 76 77 82 86 86 92 98 100 97 94 98 80 51 46 34 26 21 23 25 23 21 25 32 25 30 30 30 31 31 33 40 51 38 37 39 51 39 28 43 61 67
74 76 79 79 79 78 76 76 80 86 81 91 99 98 100 100 96 65 59 51 40 25 23 22 23 23 28 27 28 36 33 39 37 33 49 44 54 68 52 59 42 53 45 44 48 68 53
74 74 76 79 80 79 77 76 78 87 80 85 99 88 64 96 96 72 58 47 42 35 23 23 29 29 28 36 32 39 32 42 47 49 45 48 62 71 54 39 36 47 55 52 80 64 89
79 77 77 77 78 81 78 77 78 87 83 93 99 74 52 53 65 76 70 53 45 34 35 33 33 29 29 36 33 36 34 46 61 39 47 44 69 80 79 48 52 76 70 60 85 86 86
78 79 79 79 79 81 81 78 79 86 84 95 80 51 48 60 66 72 66 50 44 43 34 26 32 34 37 32 25 25 26 34 39 53 54 69 92 89 84 48 60 89 94 84 92 74 85
82 80 79 79 80 80 81 78 79 87 81 79 67 53 67 74 57 54 45 41 39 47 99 36 33 36 33 32 33 37 37 38 44 45 49 97 100 79 75 70 85 96 74 70 83 79 67
87 87 84 79 82 80 81 78 78 86 83 63 61 56 64 76 47 48 42 39 35 45 52 59 34 34 40 44 54 59 66 73 59 54 56 83 92 91 84 66 79 81 79 76 88 81 71
89 89 86 82 85 81 79 80 81 86 83 70 90 79 60 61 52 37 39 38 50 67 55 52 52 46 48 49 61 77 70 58 69 68 49 62 83 92 74 66 69 67 53 48 52 93 57
95 88 86 83 82 81 80 80 87 89 85 73 92 92 60 86 41 40 41 57 49 43 43 56 61 61 50 56 80 65 58 40 66 68 84 97 99 88 70 73 73 50 49 53 93 93 61
89 81 80 82 81 79 80 89 90 84 78 66 92 82 74 88 65 55 43 43 34 34 48 49 56 53 57 63 61 51 62 64 63 53 61 65 82 84 64 80 83 56 56 76 85 69 64
91 90 90 90 90 88 84 82 81 78 79 70 88 74 56 55 59 50 48 40 35 27 35 50 45 50 55 48 48 52 68 71 62 68 49 75 68 83 72 79 74 69 77 66 62 71 74

GFSGBSN_sfc_rhum_120.txt.gz
RH
90 93 95 96 95 93 92 92 93 93 93 93 93 92 90 86 83 83 80 74 73 72 72 71 67 69 52 33 23 28 66 52 24 18 12 9 10 10 12 10 9 9 8 7 7 8 7
88 89 90 94 96 97 97 95 96 96 96 96 95 94 91 89 85 85 83 76 74 74 73 71 66 72 34 40 10 13 15 17 16 13 10 8 8 7 9 10 10 8 8 8 8 8 7
81 90 91 91 92 97 97 99 99 98 98 98 98 98 95 92 88 87 84 79 77 75 73 69 66 46 36 35 16 11 11 9 9 10 10 8 9 13 13 14 9 10 12 10 9 7 7
86 88 88 90 92 93 95 97 99 98 98 98 98 98 98 96 92 89 86 83 78 74 71 69 76 44 42 22 12 11 11 11 10 8 9 9 11 13 13 11 11 12 13 16 11 9 7
78 85 87 89 91 92 94 94 96 97 98 98 98 98 98 96 96 93 89 83 78 71 65 71 61 48 43 24 14 11 8 9 8 10 11 9 12 15 13 14 18 18 20 16 12 8 8
76 78 84 88 89 92 92 94 95 96 97 97 97 98 98 98 96 95 87 76 68 61 56 44 38 47 34 17 12 14 10 12 9 13 15 16 16 16 14 16 22 19 17 15 15 9 9
76 79 80 82 86 91 92 91 95 96 96 94 97 98 98 98 95 92 82 63 53 70 50 44 37 33 27 18 15 14 12 15 10 13 21 17 21 22 17 16 15 15 16 16 14 12 12
70 74 81 76 76 81 84 91 92 95 96 96 96 97 98 96 94 87 68 70 48 42 59 39 36 32 25 19 24 19 11 21 22 20 16 18 23 16 15 16 16 15 17 19 16 11 12
74 76 74 79 79 77 77 83 87 92 95 97 95 97 97 96 89 84 65 53 31 31 49 39 28 26 24 22 27 22 16 16 19 21 22 24 19 14 15 15 16 17 19 20 16 13 11
74 73 78 75 76 80 83 84 83 86 94 96 97 98 96 92 90 71 66 45 31 33 56 24 23 23 22 19 24 16 15 15 19 21 18 18 14 15 16 15 15 20 14 14 15 18 21
77 75 76 78 80 84 88 86 85 84 88 96 99 96 92 82 71 69 52 37 37 53 58 15 21 12 14 21 14 14 16 12 20 22 18 21 16 15 15 16 15 16 14 17 17 20 22
73 73 76 76 79 83 87 88 86 85 86 94 98 93 90 80 67 53 37 47 51 72 67 23 18 18 20 19 14 12 13 12 12 15 14 14 10 13 14 14 14 14 17 18 19 22 34
73 74 73 75 78 80 82 86 87 86 86 91 96 92 86 61 75 50 52 65 96 82 21 23 24 21 21 20 16 15 18 19 19 27 27 18 17 13 13 18 17 17 24 40 41 40 40
70 74 75 73 72 78 80 82 87 86 86 90 96 92 92 66 49 60 64 85 96 33 33 16 19 19 25 19 18 18 19 21 18 19 22 26 31 19 16 19 23 22 22 38 45 47 38
69 72 74 75 74 73 76 78 82 87 87 91 96 99 97 93 62 56 86 100 64 36 24 22 20 23 24 20 21 20 23 22 17 17 28 31 27 14 16 17 19 25 30 19 34 30 42
66 70 72 72 73 74 74 77 79 85 88 94 97 97 96 92 81 82 97 91 48 30 29 27 29 24 28 23 27 26 24 20 21 18 20 27 40 21 19 15 18 23 20 43 37 54 53
70 69 72 71 72 73 76 76 78 83 85 86 94 99 98 94 95 98 98 81 52 34 32 26 28 26 24 24 22 26 25 20 20 21 20 20 26 27 22 24 23 25 34 32 32 36 55
72 71 71 70 71 75 76 77 78 82 85 89 96 100 98 91 100 100 93 57 50 45 34 24 23 25 25 24 25 26 27 23 18 19 28 24 35 47 34 20 16 18 23 28 62 55 39
74 74 72 70 71 72 72 74 76 81 87 92 99 100 98 89 98 97 79 59 49 40 30 24 25 25 24 26 34 27 26 31 26 26 33 28 39 52 36 31 22 23 31 32 39 60 63
81 78 76 72 72 71 71 74 75 80 86 85 98 99 100 100 94 82 81 65 57 37 32 24 23 24 27 29 25 33 28 36 35 32 44 48 47 65 55 52 45 69 79 44 45 63 54
83 81 77 77 75 73 74 76 75 78 85 87 98 86 65 97 93 86 75 54 53 56 29 23 26 27 29 38 31 32 29 44 40 45 39 43 56 66 52 38 32 43 47 39 68 52 73
82 82 81 81 78 76 77 77 76 77 83 97 99 58 54 53 64 86 95 88 55 42 33 30 32 27 29 34 30 40 34 38 58 42 49 41 61 76 78 45 46 59 56 46 66 73 84
79 79 80 80 78 78 78 77 77 77 84 96 80 44 49 58 64 87 79 68 53 49 34 26 29 33 34 29 26 28 25 26 36 45 55 65 86 74 72 49 55 74 81 79 73 62 61
77 78 79 80 77 79 80 80 78 78 79 92 62 59 76 66 64 69 58 58 53 48 95 31 30 34 33 26 28 31 29 30 32 40 43 91 89 67 78 68 83 86 63 57 67 71 81
87 80 80 79 79 78 80 80 79 78 77 91 74 73 72 71 54 53 55 57 45 51 46 51 36 35 38 37 48 50 55 54 48 49 53 78 80 88 87 64 77 73 67 71 83 86 64
89 84 81 76 78 78 78 79 79 78 77 90 85 70 71 74 60 46 52 48 53 67 46 47 50 46 50 46 58 66 66 60 61 58 42 66 76 90 70 92 86 71 53 48 56 89 64
89 86 83 79 78 79 80 79 78 79 77 89 97 93 67 88 46 46 48 52 41 47 50 60 60 58 46 58 72 64 63 46 71 73 83 85 92 90 74 82 79 50 48 46 87 91 64
87 87 87 82 79 79 80 80 79 79 77 89 98 88 94 87 58 49 38 48 43 53 69 72 66 58 65 65 60 55 66 89 64 55 64 70 80 77 70 83 83 46 50 72 82 69 69
88 88 88 85 84 81 78 80 80 79 79 89 96 90 91 82 68 56 57 50 52 45 53 60 55 57 66 54 50 74 92 69 58 69 44 74 72 86 91 87 72 68 79 66 61 76 81

GFSGBSN_sfc_rhum_123.txt.gz
RH
91 87 87 90 94 95 95 94 94 94 94 94 94 93 92 90 88 86 86 83 80 78 75 73 71 67 68 47 36 40 65 56 36 26 24 15 13 14 15 14 12 14 14 10 11 11 12
88 86 90 90 88 94 93 97 97 96 95 95 94 94 94 92 91 89 88 84 81 80 78 73 69 72 54 49 20 34 35 28 23 21 20 14 12 10 13 14 19 14 14 14 12 11 11
83 84 91 92 90 90 93 96 98 99 98 98 98 97 98 97 97 95 91 84 81 80 78 73 69 58 47 44 28 25 14 15 12 11 14 13 13 20 19 19 16 14 16 14 14 12 13
84 86 87 88 91 91 90 91 96 97 98 99 98 98 98 98 98 97 96 86 87 81 75 70 74 66 56 28 30 16 15 16 14 13 11 12 13 16 23 18 17 17 19 24 15 13 13
79 82 85 88 90 91 92 92 93 95 97 98 98 98 99 99 98 97 94 90 85 84 75 73 76 70 61 31 21 18 10 14 13 13 14 9 17 23 20 23 24 23 32 26 21 15 12
71 79 82 86 88 88 90 93 92 94 95 97 97 98 98 99 98 96 95 88 80 73 54 44 50 68 48 30 17 17 15 14 17 16 19 21 25 27 26 26 34 27 26 23 22 17 18
68 72 77 83 84 86 85 93 92 94 96 96 96 97 98 98 98 96 90 80 69 78 58 62 52 47 34 28 17 18 16 17 21 18 30 26 35 38 27 23 19 20 23 24 20 18 18
75 73 72 75 81 79 78 83 91 94 96 96 95 95 97 98 96 91 82 80 61 50 71 50 49 44 35 31 37 25 20 26 30 27 20 28 35 26 21 21 22 26 26 24 20 18 18
73 73 72 71 74 81 78 80 83 84 94 96 96 95 98 97 94 90 76 69 40 43 67 49 46 46 44 38 41 34 23 25 27 31 31 32 26 20 21 23 23 23 23 23 23 20 19
76 76 64 69 74 78 81 85 84 83 84 95 98 97 98 94 93 82 79 62 49 48 92 47 34 31 30 28 34 21 23 26 26 27 27 29 22 22 22 22 20 25 20 20 22 26 34
74 76 78 74 76 80 85 87 87 84 83 87 98 97 93 83 82 83 64 55 56 68 89 23 21 17 22 30 20 19 19 25 32 27 28 33 26 24 24 21 17 25 23 24 25 29 32
74 74 74 76 77 79 85 86 89 86 84 86 98 94 92 88 80 75 58 51 59 90 92 30 21 23 25 26 22 16 21 16 18 22 25 25 16 17 20 18 22 20 24 28 31 35 46
72 74 74 74 75 76 82 84 86 88 85 85 97 94 93 64 79 54 51 67 95 98 28 26 29 23 26 26 26 21 22 26 26 35 39 25 23 18 15 24 23 26 32 65 68 66 53
75 74 73 73 75 74 76 81 84 87 87 85 96 95 94 78 74 62 73 94 99 53 40 28 25 26 31 26 25 23 24 31 24 25 34 40 46 24 21 24 28 31 34 59 64 65 50
72 74 72 73 76 75 73 78 82 84 88 86 94 98 99 96 86 74 91 100 79 47 34 30 28 30 33 27 30 27 30 29 25 24 41 40 36 23 20 21 26 38 43 31 46 40 50
68 70 71 71 74 76 75 75 75 80 84 86 99 99 98 96 95 93 96 81 70 41 32 33 46 34 37 29 32 32 34 29 28 31 32 43 54 29 25 24 26 29 27 60 70 72 64
73 71 71 72 72 75 75 75 76 78 84 86 98 100 99 94 94 100 99 90 59 44 38 39 43 39 32 35 32 38 34 29 31 31 26 29 43 41 31 37 35 37 48 45 51 53 74
75 73 74 73 72 72 72 73 75 78 83 88 98 99 99 89 99 100 98 86 59 46 43 47 51 38 42 40 39 42 41 35 25 31 33 42 53 67 46 30 27 29 35 45 77 58 56
73 74 74 74 73 72 72 73 76 79 82 97 99 100 98 96 99 99 85 74 67 56 50 64 57 35 35 43 50 41 49 43 38 37 44 45 56 78 62 52 47 65 64 67 66 74 68
73 74 73 74 73 72 72 72 75 77 80 96 99 99 100 100 99 90 77 79 77 55 55 61 48 32 41 46 42 46 51 50 48 49 52 56 63 74 67 62 55 63 48 55 78 97 81
74 74 75 76 76 74 72 72 75 75 78 96 100 95 86 98 97 94 74 72 76 78 49 50 56 37 42 50 48 48 51 60 53 57 48 58 71 74 67 52 46 58 53 47 72 64 86
73 76 76 79 81 80 74 73 73 72 76 98 99 96 81 87 77 95 96 94 78 70 63 47 51 37 38 50 46 49 45 68 67 57 60 59 80 85 88 57 58 70 64 58 66 68 89
75 76 76 79 80 83 79 75 74 73 78 97 96 68 70 74 84 94 82 79 82 73 63 43 46 43 47 42 37 40 39 41 54 64 72 74 86 90 90 61 67 84 70 73 68 66 74
71 73 76 79 80 82 80 78 75 74 78 92 85 67 93 87 80 81 70 74 74 74 80 57 43 52 48 40 40 42 41 36 50 53 58 86 86 85 93 85 96 78 73 68 82 73 75
77 75 77 77 76 81 81 81 78 76 77 87 95 88 90 91 64 68 69 70 66 70 86 71 45 50 46 45 68 66 76 65 56 54 72 77 89 93 98 93 77 82 72 78 84 84 71
79 77 76 78 78 79 80 80 79 77 76 82 92 96 93 93 82 53 67 64 76 78 80 75 65 60 54 64 80 79 87 75 73 63 59 75 82 90 94 95 93 95 60 56 63 95 74
87 81 80 79 78 79 81 79 79 77 75 86 89 86 97 98 80 70 66 70 72 81 77 78 75 70 61 76 83 85 78 51 78 82 87 97 95 93 91 93 85 62 56 56 94 87 73
88 87 88 90 88 77 80 80 78 78 76 87 86 97 98 97 93 86 74 68 72 64 71 81 78 78 79 84 79 76 87 82 95 82 82 86 94 96 89 95 92 65 60 80 85 86 79
90 89 89 88 84 76 79 79 78 77 77 82 91 90 95 96 96 84 81 73 55 52 80 65 71 70 86 78 73 79 97 97 94 98 59 86 82 92 92 94 84 82 87 80 82 93 93

GFSGBSN_sfc_rhum_126.txt.gz
RH
90 88 87 89 89 93 91 94 96 96 95 94 94 93 93 91 90 89 87 86 84 82 78 75 73 72 65 47 41 35 62 57 36 30 28 24 17 15 18 15 14 16 16 14 13 13 13
86 87 90 91 88 85 88 94 94 97 97 96 95 94 94 93 92 91 89 88 85 82 80 75 71 76 49 59 28 30 40 33 30 27 25 23 16 15 16 18 24 19 17 15 14 14 16
85 87 90 88 92 94 89 91 93 95 96 98 97 97 98 96 95 93 93 92 88 81 80 75 72 66 52 52 33 30 28 18 17 16 15 15 15 19 21 22 20 17 17 16 14 15 15
77 84 88 89 91 91 92 92 94 95 95 98 99 99 98 98 97 97 96 95 87 86 82 75 69 73 61 34 39 31 20 17 16 16 17 14 14 20 25 20 19 20 24 26 16 17 14
70 81 82 86 89 90 92 92 92 92 94 96 97 99 99 99 99 98 97 95 89 85 84 79 76 73 71 43 25 25 21 17 18 16 16 11 20 25 21 28 28 26 30 27 23 19 17
69 75 81 84 88 86 87 89 92 92 94 95 97 98 98 99 99 99 97 92 84 78 61 48 54 73 57 40 24 16 19 13 16 20 22 26 28 29 31 30 36 30 30 34 29 19 22
71 72 79 77 84 83 81 85 94 94 94 95 96 96 97 98 99 98 95 91 76 70 64 68 62 55 37 30 18 20 18 18 23 25 30 31 34 40 33 28 24 24 26 28 26 19 23
70 75 72 73 75 80 76 81 86 94 95 95 95 94 96 97 98 93 87 86 64 50 76 57 55 54 42 38 46 34 20 26 30 32 24 30 40 29 27 27 29 30 32 32 24 20 21
77 75 71 69 69 78 80 80 84 83 88 95 96 96 95 99 96 93 84 77 45 41 66 56 50 53 52 47 53 47 31 30 34 41 37 31 27 24 25 28 29 28 31 28 29 24 23
78 77 73 69 70 74 79 82 87 84 83 88 98 97 99 95 94 85 86 65 58 54 82 58 54 45 46 44 56 40 34 30 31 32 33 34 26 28 29 32 25 29 23 26 26 29 36
76 77 75 74 70 62 79 83 85 87 83 84 92 99 96 85 89 91 78 70 65 62 59 24 34 27 35 46 26 24 25 31 40 31 31 38 34 32 29 25 23 28 27 27 31 34 36
78 76 75 75 77 75 74 83 84 88 86 86 96 97 95 92 89 80 63 65 60 86 86 44 25 26 33 29 22 19 25 19 22 30 28 30 27 22 22 20 21 22 28 33 36 38 49
79 76 78 74 75 77 78 86 85 85 87 86 97 96 94 74 92 66 72 83 96 95 40 38 31 28 32 34 30 22 23 26 29 34 39 30 26 20 20 25 25 27 37 62 63 67 58
77 77 76 75 75 74 74 77 84 84 85 85 94 96 94 86 90 69 90 96 99 64 56 32 29 30 34 30 30 30 27 31 27 30 39 43 45 29 26 29 30 32 39 59 65 70 59
78 77 76 75 75 75 74 72 81 85 86 85 91 99 100 97 93 94 92 100 84 62 42 39 31 38 39 33 32 31 33 34 27 27 40 46 39 28 22 24 30 40 44 35 49 52 62
78 80 78 75 76 75 76 74 77 81 81 86 99 99 98 96 93 94 98 88 87 49 40 42 54 40 47 38 39 35 37 32 29 31 32 43 54 35 27 26 28 32 29 53 71 66 63
78 80 78 78 75 75 76 76 75 76 81 86 98 100 98 95 92 99 99 98 66 46 45 54 57 57 44 40 34 42 40 33 37 34 30 32 46 44 34 36 36 40 47 48 53 59 68
78 80 80 78 76 74 75 77 76 78 82 88 99 100 99 91 100 100 98 89 67 58 50 52 56 55 45 46 42 44 44 41 32 33 33 41 56 61 44 35 32 38 44 51 70 56 60
77 78 86 80 78 77 76 75 75 76 80 97 100 100 98 96 99 98 94 73 69 64 56 58 65 57 50 49 51 49 48 49 43 42 45 44 58 74 55 52 56 62 67 67 74 75 68
76 78 78 78 76 77 76 76 74 76 79 95 99 99 100 100 98 79 83 81 78 64 66 60 66 63 55 46 47 52 55 54 56 55 59 57 63 70 58 54 63 68 55 51 78 99 80
77 77 76 76 75 76 74 74 74 76 78 94 100 96 90 97 98 88 76 72 78 75 63 62 71 71 58 57 59 56 65 64 57 55 50 60 63 79 70 57 55 62 63 56 71 57 92
76 77 77 77 76 76 76 75 74 74 77 97 100 99 92 94 77 92 84 81 73 68 72 70 75 69 65 59 49 62 65 67 64 62 62 62 76 88 86 57 66 74 62 59 68 70 85
75 76 77 78 77 76 78 77 76 74 78 99 94 96 79 86 85 92 84 73 81 79 75 57 70 66 56 46 43 42 48 56 58 68 72 76 84 91 88 64 73 89 79 75 80 67 60
75 76 75 76 76 77 79 79 77 75 75 93 93 93 94 95 83 79 67 74 77 78 79 72 67 70 52 44 45 45 46 55 58 64 65 87 84 87 94 84 95 74 76 74 80 79 80
76 76 75 76 77 77 77 78 81 76 74 75 95 93 97 94 74 72 75 72 72 71 90 75 65 60 47 50 71 69 82 63 61 63 72 75 87 92 92 94 75 82 75 83 86 83 78
77 73 74 75 76 78 77 78 83 80 76 79 84 94 100 92 85 59 77 75 85 87 81 81 64 61 62 67 79 83 88 76 71 68 59 76 76 82 98 97 95 80 77 64 68 92 79
77 78 76 72 72 76 79 78 82 80 77 85 91 82 98 99 83 71 77 79 77 86 86 82 79 71 63 84 91 85 85 62 78 82 96 87 91 85 86 88 81 70 62 63 88 80 80
82 80 79 76 74 77 79 79 80 80 77 86 82 91 96 99 94 92 90 76 85 83 92 84 77 76 86 87 83 83 90 80 80 76 84 87 94 94 94 96 86 72 63 84 83 91 82
89 88 84 78 77 77 78 78 80 80 79 81 91 94 91 99 92 90 90 87 84 63 84 80 74 84 90 88 83 81 94 95 87 98 78 94 81 91 85 81 84 86 85 83 84 89 87

GFSGBSN_sfc_rhum_132.txt.gz
RH
90 90 92 92 93 94 95 96 97 97 96 95 95 94 93 92 92 92 91 90 88 86 82 80 78 77 54 68 57 39 58 49 30 27 25 24 20 25 27 24 22 21 22 20 19 18 18
89 89 89 90 89 92 92 92 95 95 98 98 98 96 95 94 94 93 93 92 90 88 82 82 76 77 53 84 39 33 36 32 31 28 19 18 22 23 26 29 28 27 25 22 19 18 20
89 91 90 92 93 90 89 91 94 93 93 93 95 97 97 96 95 94 94 94 92 91 84 83 78 68 62 75 37 43 37 36 28 21 22 20 20 19 28 28 26 24 24 22 21 22 22
85 89 90 92 92 91 93 93 95 92 92 90 90 94 97 98 97 96 97 96 95 90 85 84 79 74 87 51 48 47 44 36 23 22 22 22 20 24 27 26 23 26 28 28 21 23 20
75 76 81 85 91 95 94 94 93 94 95 95 94 94 96 100 100 99 99 98 96 88 87 86 73 80 86 54 50 40 36 38 20 20 24 14 22 28 25 29 32 32 34 35 26 22 24
70 71 74 76 83 86 91 92 93 92 94 94 94 94 96 97 99 100 99 94 89 82 73 53 56 85 66 58 43 25 38 19 20 22 20 24 33 34 35 34 36 38 36 53 36 24 26
72 70 72 74 78 82 83 82 86 88 93 92 94 95 96 98 100 99 97 98 96 89 70 80 73 73 54 41 36 23 22 18 24 24 33 35 36 39 32 31 31 32 36 38 32 25 32
75 77 75 75 76 76 79 78 83 84 88 94 94 95 96 97 99 96 93 93 80 60 81 69 72 69 58 52 63 49 19 28 30 33 28 29 39 31 31 34 34 39 44 43 37 31 31
75 77 75 73 73 74 71 79 78 80 86 90 95 95 91 98 98 97 93 84 51 49 74 68 65 67 59 59 70 58 24 29 33 36 33 37 29 29 30 35 38 43 44 43 39 31 30
79 81 80 75 75 75 72 74 82 75 83 84 89 97 98 98 96 92 95 83 65 57 86 68 62 61 60 55 63 50 32 36 41 49 42 41 33 32 38 36 36 51 37 37 36 33 38
78 81 82 81 79 78 73 74 79 78 78 83 84 98 98 86 97 98 84 75 70 52 85 37 55 44 57 56 38 50 47 45 50 43 44 48 38 43 42 39 36 41 32 32 34 37 41
80 77 78 82 81 80 77 74 80 79 79 82 84 98 96 93 95 89 89 73 65 79 82 42 52 64 72 66 32 35 40 42 45 45 45 41 34 29 31 29 27 28 31 36 48 44 52
84 81 78 79 81 79 79 77 79 78 80 84 86 98 97 85 93 92 81 88 93 92 46 46 40 66 73 63 34 30 35 33 44 63 64 43 37 29 27 35 31 30 37 60 61 61 51
83 84 81 80 80 79 79 78 77 79 81 85 88 98 95 95 93 88 90 94 96 67 64 46 35 46 62 40 36 30 36 39 33 35 45 52 44 32 29 30 33 36 40 55 54 66 53
80 84 83 80 80 79 78 79 79 83 83 84 92 99 100 98 95 96 95 96 79 73 56 48 35 42 47 38 42 32 38 42 35 29 42 45 41 33 27 28 30 41 45 40 47 56 67
78 81 85 83 84 79 78 79 79 80 81 85 99 100 98 98 95 97 97 80 85 63 54 49 44 40 49 43 40 42 40 34 32 32 33 40 48 40 32 30 33 37 34 56 72 71 67
79 78 81 84 83 82 78 77 79 79 79 87 98 99 96 95 95 99 99 87 75 67 60 58 58 61 49 45 42 46 41 36 40 39 33 44 45 46 37 37 40 40 46 52 55 58 73
80 78 80 82 84 82 80 77 76 78 79 92 99 100 95 93 100 100 99 86 74 66 59 62 63 66 63 49 50 49 47 42 46 42 38 41 57 58 42 44 46 41 43 53 75 55 62
74 77 78 76 81 83 82 80 76 74 78 98 99 100 98 100 99 97 91 80 70 74 66 66 66 62 61 55 65 53 53 59 58 45 43 46 53 70 56 52 53 49 52 52 71 77 56
71 75 76 78 80 80 84 87 75 75 78 92 100 100 100 100 94 87 79 81 78 72 71 66 72 69 60 59 54 57 53 58 62 66 58 55 56 68 57 55 61 68 63 69 67 84 54
71 75 78 79 80 81 83 84 88 74 78 89 100 98 89 99 96 90 75 77 79 78 70 69 74 76 75 75 58 58 64 60 54 54 56 56 53 76 64 54 59 57 61 64 76 54 74
73 76 78 79 79 78 81 86 90 77 78 95 100 99 96 94 86 88 85 78 79 68 81 80 82 78 67 75 65 68 66 60 53 60 59 63 82 82 76 55 59 71 74 68 65 66 72
76 77 78 80 80 77 77 81 89 85 78 99 98 96 84 84 91 91 78 74 74 77 74 68 74 78 88 81 80 66 55 59 62 66 69 80 91 86 86 67 68 81 80 72 80 72 63
73 70 73 76 79 80 79 79 86 88 80 97 89 96 100 96 89 78 69 69 79 71 79 75 71 78 70 57 53 56 63 65 70 67 70 84 84 77 82 78 84 67 70 69 75 73 71
72 72 74 75 79 81 80 84 83 91 83 90 96 96 97 99 77 82 77 74 67 75 83 78 69 71 61 69 85 83 79 62 68 68 71 75 85 89 87 82 71 58 70 84 90 77 79
73 73 72 76 80 81 78 83 86 89 84 78 90 95 98 96 91 64 77 76 85 83 87 85 74 78 79 82 97 97 91 86 74 79 75 75 83 83 92 94 93 67 74 69 67 87 85
76 76 75 77 80 81 80 86 87 87 86 88 95 90 98 100 93 79 82 82 79 87 90 85 78 78 75 96 97 94 85 63 76 77 92 90 93 79 87 88 81 58 72 66 81 74 90
77 78 77 78 80 83 81 85 86 85 85 88 95 90 90 100 97 89 84 82 84 78 92 85 85 87 91 91 92 94 90 84 81 75 83 82 86 96 82 94 88 70 74 75 75 91 89
77 78 78 79 81 83 80 85 83 78 75 82 96 92 93 94 96 86 87 85 94 71 70 91 78 89 92 94 96 91 95 96 83 92 80 85 77 88 75 77 72 75 75 81 84 86 88

GFSGBSN_sfc_rhum_135.txt.gz
RH
90 90 90 93 94 95 96 97 96 96 96 95 95 94 93 92 92 92 92 91 90 88 85 83 82 79 48 64 55 36 56 43 21 21 16 17 16 16 17 16 16 14 16 16 15 15 14
90 89 90 88 90 89 90 92 94 96 97 98 98 97 96 95 94 93 93 93 92 90 86 84 82 74 52 77 32 30 29 23 21 17 13 14 15 16 19 20 19 19 18 17 16 14 15
89 90 91 91 92 92 89 90 90 93 94 93 92 94 96 96 96 95 94 94 94 92 85 83 81 56 61 67 33 35 34 25 20 15 16 14 13 15 19 20 19 18 18 16 16 15 14
89 89 90 93 92 92 91 93 92 91 92 92 92 91 90 96 96 97 97 96 97 93 86 84 77 57 80 50 41 44 36 34 22 18 16 16 14 17 18 18 19 19 21 20 16 18 17
82 86 88 88 89 91 94 94 93 90 94 94 95 93 92 93 100 99 99 99 97 90 86 86 63 67 74 53 48 35 36 36 20 17 17 14 18 23 20 21 22 25 22 24 20 19 17
72 76 77 78 81 81 89 95 95 95 95 95 93 93 96 96 96 100 99 96 93 84 74 52 53 80 60 55 38 23 32 20 16 20 18 22 25 24 24 22 22 26 25 25 24 19 20
70 74 76 77 75 77 81 87 92 92 92 92 91 94 95 95 99 99 97 97 95 83 71 76 69 70 57 43 38 19 23 17 20 23 27 28 22 25 25 26 24 24 26 27 25 22 26
76 72 75 76 75 76 77 82 84 82 85 88 93 93 94 95 98 96 93 98 81 55 77 67 74 70 59 50 62 45 17 23 25 32 24 27 32 26 26 26 26 30 32 32 29 27 28
79 76 76 75 74 74 74 78 82 80 81 84 93 94 94 96 98 98 92 82 48 47 75 64 63 64 58 56 62 54 22 27 29 32 29 40 31 27 27 29 31 33 34 34 31 27 21
78 79 79 76 74 75 79 78 79 80 77 82 86 94 96 98 97 92 94 72 59 59 72 58 59 58 59 55 63 44 30 28 33 47 34 34 28 27 28 28 29 38 30 30 33 26 26
80 80 78 81 79 80 80 75 75 76 77 78 85 92 98 90 94 93 73 74 60 59 37 33 55 43 56 53 41 46 41 40 53 42 37 36 34 39 40 36 32 33 31 27 24 24 28
83 81 80 79 79 82 82 75 76 76 78 76 80 94 97 93 91 82 82 71 61 67 47 34 54 63 69 58 39 36 44 38 40 38 34 36 27 26 26 27 28 25 25 30 35 30 36
84 83 81 80 79 80 81 78 78 79 78 78 79 92 97 85 90 88 82 86 86 86 42 37 49 69 67 68 49 34 53 44 58 69 64 46 42 26 26 31 25 25 32 41 41 40 35
83 82 83 81 80 80 81 80 80 82 77 77 82 92 97 93 92 88 91 93 94 58 60 41 33 67 63 47 35 27 46 38 28 32 50 48 36 32 27 36 40 32 34 40 45 41 30
82 80 82 83 83 80 80 80 80 81 81 78 86 99 100 98 95 93 96 97 67 65 52 46 32 44 52 37 38 27 42 43 32 30 39 38 32 25 24 25 25 35 34 31 35 43 45
77 83 81 82 82 84 81 80 79 80 81 83 99 99 98 97 95 96 99 82 70 57 49 44 40 38 48 42 41 35 36 33 32 31 34 40 40 31 25 24 28 32 29 44 48 53 48
74 74 80 80 82 83 82 81 79 79 81 84 98 99 95 95 96 100 98 77 69 60 57 53 49 50 41 44 40 44 41 34 36 33 30 36 38 36 28 31 31 32 38 42 41 41 46
72 78 79 82 84 85 85 86 78 77 78 87 99 99 96 96 100 100 99 79 67 63 58 57 54 57 55 47 46 44 44 39 46 37 33 38 52 44 34 34 35 31 35 39 52 42 42
76 78 82 88 86 86 84 85 84 78 75 97 98 99 97 99 98 99 87 86 68 68 63 63 62 56 54 49 57 48 48 53 53 41 43 45 46 51 43 38 38 38 38 42 54 56 47
77 80 83 83 84 84 84 85 88 80 76 89 99 100 100 100 97 80 88 84 84 67 65 61 62 60 57 60 52 54 46 50 58 65 56 57 50 72 49 44 46 52 49 47 46 58 42
78 87 86 83 79 81 82 84 86 86 78 82 99 99 84 97 96 95 72 72 79 79 64 64 69 69 65 67 56 56 51 50 49 49 48 57 50 73 52 44 43 45 48 52 68 45 60
72 81 88 83 86 80 78 80 87 86 83 93 99 98 93 86 77 88 88 80 71 70 78 76 76 75 71 74 63 67 60 49 50 49 49 56 69 72 80 47 49 63 58 51 68 61 69
66 70 74 74 74 78 82 80 84 84 91 100 99 90 75 81 85 87 82 79 73 69 72 66 72 75 80 72 72 67 58 54 50 56 61 70 88 88 78 54 56 72 68 69 59 51 49
62 66 72 74 72 73 79 80 83 84 84 99 96 96 96 92 80 77 65 66 75 72 87 69 68 75 64 57 55 54 56 58 64 63 64 90 93 91 77 65 76 72 52 49 54 50 51
65 63 67 72 74 76 79 78 76 79 84 97 96 92 95 88 74 75 73 68 69 72 78 74 67 65 59 68 76 69 71 61 63 65 64 69 75 76 75 67 58 46 51 65 74 56 53
66 65 67 75 78 79 78 78 78 86 84 96 95 95 94 82 82 63 74 73 76 77 77 78 72 73 71 82 87 91 86 75 65 76 65 65 70 74 82 87 80 51 55 58 58 79 60
72 70 71 76 78 79 81 81 82 82 84 95 98 91 96 96 88 72 74 78 75 76 74 76 73 73 73 83 94 87 81 67 82 78 84 84 87 83 74 76 63 47 61 56 72 68 71
73 73 74 77 78 81 82 83 83 82 83 93 98 91 90 96 95 87 90 78 78 74 81 79 79 82 83 85 76 79 86 75 68 60 70 69 80 78 66 90 80 60 64 62 67 76 73
75 76 76 78 78 79 83 81 80 81 85 89 99 92 90 93 97 86 86 84 81 92 73 84 73 80 81 77 81 82 83 80 70 74 66 69 64 70 65 63 62 63 63 66 67 70 77

GFSGBSN_sfc_rhum_138.txt.gz
RH
94 92 94 94 96 96 95 95 95 95 95 95 94 93 92 92 92 92 92 92 90 88 86 84 84 82 47 46 39 25 52 42 14 13 11 12 13 13 14 12 12 12 11 11 10 10 11
92 92 91 90 88 91 94 96 96 97 97 97 97 96 95 95 95 95 94 93 92 90 87 84 84 78 50 49 28 21 18 17 16 13 11 10 12 11 14 14 14 14 13 12 12 11 11
91 91 91 91 91 91 90 92 91 90 93 93 94 96 97 96 96 96 96 96 94 93 88 83 82 47 58 43 28 25 25 19 15 15 14 11 11 13 14 16 14 14 15 12 12 12 12
88 91 91 94 94 93 91 92 92 90 90 89 90 93 92 90 94 96 97 97 96 94 88 83 77 51 52 39 32 35 32 29 22 18 14 13 11 13 15 14 14 13 16 13 13 13 13
83 87 88 92 92 93 93 92 94 92 91 94 93 93 92 93 94 99 99 98 98 95 85 83 58 57 47 46 40 28 31 34 24 15 13 11 13 16 15 15 14 16 10 15 14 13 13
75 79 84 88 88 87 88 90 96 95 94 95 95 93 94 95 95 97 99 97 96 88 71 45 45 64 44 38 32 19 24 24 14 14 14 15 14 15 14 13 13 14 15 14 14 14 14
73 76 78 80 83 80 76 79 91 96 96 97 97 97 97 97 98 99 95 94 93 85 67 58 49 48 42 35 29 16 24 15 15 20 26 20 21 19 15 17 16 16 17 17 14 14 21
77 78 77 78 79 77 73 78 88 90 89 89 91 92 93 95 98 97 90 97 78 50 66 49 50 49 44 42 49 29 18 21 23 27 23 25 25 19 19 18 18 19 20 19 18 17 22
80 78 77 75 76 76 76 80 84 83 83 82 85 94 94 95 98 97 86 70 42 45 77 59 46 47 43 45 47 40 17 20 24 28 26 30 25 20 20 20 21 21 21 20 22 19 18
84 81 79 76 75 76 76 79 80 80 82 78 81 91 96 98 98 73 76 56 46 50 60 38 47 43 43 40 47 31 29 20 25 29 30 33 28 31 27 21 20 22 20 22 22 24 19
83 85 82 79 78 79 80 81 79 79 76 80 80 91 98 91 61 75 54 56 51 49 45 22 39 35 42 41 35 41 30 31 36 36 36 28 28 28 29 24 23 26 24 24 21 22 23
81 83 83 81 80 78 79 80 79 76 76 77 81 85 97 94 72 53 58 55 48 52 26 29 38 46 51 42 30 39 41 32 32 38 35 29 22 21 20 23 23 19 22 24 24 24 28
77 83 84 82 80 80 79 79 79 78 78 77 78 87 98 73 70 66 71 73 68 46 21 24 39 45 40 48 40 37 49 47 38 52 48 36 32 21 20 23 22 21 28 32 31 31 25
72 78 83 84 82 80 80 80 79 80 80 77 78 88 88 86 72 76 86 81 74 19 23 29 28 44 42 42 33 37 45 45 35 34 32 42 41 30 26 25 27 29 28 33 31 23 20
69 71 79 82 82 83 81 81 81 79 82 79 80 86 94 95 86 86 93 97 36 22 22 29 31 41 42 38 32 31 43 36 32 30 28 30 26 23 24 25 27 30 33 24 33 26 32
65 71 77 83 82 82 83 82 82 80 80 80 84 87 93 88 88 91 97 72 42 35 34 27 26 26 32 34 36 28 36 28 34 29 24 28 35 23 23 20 23 25 21 36 32 44 34
70 73 73 80 84 80 82 84 82 80 79 79 82 94 77 88 95 99 98 61 37 40 43 39 28 27 28 35 32 32 30 28 27 27 25 24 29 33 25 26 24 27 30 27 29 28 36
72 71 75 78 80 82 80 81 84 80 79 84 82 99 89 96 100 99 97 56 48 41 41 45 46 36 32 32 36 34 36 32 34 26 29 30 34 35 27 26 24 23 24 27 46 35 31
70 70 72 77 76 82 82 77 84 87 79 89 93 98 94 98 99 99 73 58 51 40 42 44 46 45 44 38 44 36 36 45 41 31 33 33 34 41 37 34 27 28 26 27 33 39 43
72 70 72 73 76 82 84 79 81 84 80 87 99 100 100 99 97 78 63 62 71 52 45 40 41 43 46 47 43 45 44 43 49 45 54 48 38 71 38 34 32 40 33 31 37 53 41
69 69 74 76 76 83 83 82 84 85 86 97 93 93 79 97 91 95 64 53 55 73 58 49 50 48 48 56 52 50 42 46 43 52 43 41 50 82 42 32 34 35 35 36 56 37 54
68 71 79 77 81 84 89 88 84 85 88 99 100 94 79 51 55 73 95 70 54 55 64 67 66 50 51 55 55 54 47 43 46 41 41 46 54 72 99 35 37 56 44 37 57 49 58
66 70 74 78 81 84 88 84 87 86 87 100 97 60 50 54 56 67 88 66 53 56 56 47 56 61 67 59 63 60 56 48 40 42 47 58 93 81 69 44 48 68 81 70 48 39 40
65 68 69 76 78 90 91 82 85 86 80 95 97 64 74 68 52 58 49 65 57 53 96 60 55 58 61 62 54 58 63 53 49 43 40 86 100 64 74 59 82 70 35 34 44 34 27
68 67 67 72 76 80 88 87 84 87 85 95 96 97 67 63 50 51 48 49 63 68 79 63 53 48 49 52 62 60 57 52 48 52 58 63 66 73 79 62 45 38 34 42 49 41 30
69 67 64 67 74 78 80 88 82 85 88 90 93 93 93 71 53 41 51 49 51 76 85 74 59 50 52 51 61 70 53 45 51 64 50 55 61 70 64 69 63 42 36 40 44 70 34
72 70 68 68 75 78 78 78 81 87 82 91 86 90 95 82 48 48 54 55 44 48 49 52 62 63 55 61 71 53 46 38 50 55 73 69 75 76 66 77 53 31 38 42 66 56 45
73 73 72 71 74 78 79 80 80 80 79 89 89 90 96 82 71 59 50 54 52 49 53 52 63 60 64 63 51 45 54 54 51 40 55 59 73 74 64 92 68 30 45 53 41 51 50
73 74 74 73 74 81 81 82 82 82 85 78 93 89 94 89 81 69 70 69 55 38 41 55 44 44 50 46 37 40 55 52 50 61 41 58 48 53 49 47 46 43 38 43 44 44 57

GFSGBSN_sfc_rhum_141.txt.gz
RH
91 92 95 95 95 95 94 94 94 94 94 94 93 92 92 91 91 92 92 92 92 91 90 87 86 88 49 34 29 22 39 38 14 11 10 10 11 11 12 10 10 10 9 9 9 9 9
90 90 92 93 93 94 95 97 96 96 96 96 95 95 94 93 94 94 94 94 94 93 91 87 85 91 44 49 24 21 18 15 15 12 10 9 10 10 11 11 12 12 10 9 9 9 10
89 90 91 91 92 93 93 96 93 94 94 96 97 97 97 96 96 96 95 96 97 95 92 86 84 52 47 41 24 21 22 19 15 13 12 10 10 11 11 12 11 10 11 9 8 8 10
89 91 92 92 94 94 92 91 90 91 91 91 89 91 91 90 91 93 97 97 97 96 93 86 85 50 53 27 24 27 24 26 22 15 12 11 10 12 12 11 11 10 10 10 8 10 10
84 87 90 92 94 94 94 93 90 90 93 92 94 91 91 91 93 95 97 96 98 97 91 83 64 50 49 44 32 23 24 28 23 18 12 10 12 14 14 14 12 12 9 11 11 10 10
76 82 83 89 93 92 90 91 93 94 96 95 94 96 95 95 93 95 97 96 96 90 80 55 45 56 43 33 27 20 14 26 25 18 16 16 16 17 13 11 12 12 12 9 10 11 12
76 74 82 83 87 88 86 85 87 94 97 96 94 96 95 96 97 99 96 96 95 91 74 53 45 40 31 26 24 18 22 26 19 19 25 20 19 18 13 13 12 11 12 11 8 9 15
79 78 78 80 84 83 78 78 83 90 96 96 96 95 95 98 98 99 88 95 84 54 74 46 46 39 32 33 42 28 18 22 24 25 22 23 23 15 16 15 14 12 13 12 10 11 15
83 82 80 78 78 81 78 76 81 89 92 93 91 93 93 93 96 99 88 73 48 48 76 46 36 39 36 33 44 38 22 22 24 26 23 26 18 16 16 15 16 14 15 14 14 13 13
82 86 84 79 78 77 77 78 81 85 86 86 83 87 95 96 97 66 81 59 46 50 71 38 34 32 28 31 43 29 26 26 26 29 25 25 19 22 25 22 15 17 10 15 16 18 18
79 81 84 84 80 79 78 80 79 80 82 82 79 84 96 94 50 65 50 47 55 60 75 18 30 26 29 37 28 27 22 30 30 26 26 29 28 26 24 19 14 17 20 19 18 19 19
73 72 76 82 85 82 80 79 80 80 80 82 81 80 98 96 72 46 42 51 56 78 72 23 26 32 36 35 29 29 31 27 27 27 28 28 18 19 17 16 18 18 20 19 19 20 26
71 73 74 79 84 85 82 80 79 79 79 78 82 82 96 71 63 48 64 75 72 50 20 19 26 28 30 34 32 30 35 44 39 50 48 34 31 22 17 20 19 18 22 30 33 31 29
68 71 72 74 80 84 85 81 81 79 78 77 78 87 84 87 68 72 87 89 79 25 22 17 21 29 31 25 32 28 33 34 31 24 21 34 40 25 20 19 20 21 22 32 30 26 18
63 66 69 71 75 82 83 83 81 81 80 80 82 74 88 80 78 86 94 99 51 25 14 16 20 34 31 27 28 28 32 31 25 25 31 26 27 20 20 18 17 27 33 21 31 28 31
57 64 67 71 73 76 82 82 83 81 81 82 63 81 70 76 80 96 98 75 37 18 19 14 23 24 24 27 33 27 30 26 26 26 22 24 34 22 20 21 22 26 18 34 30 38 34
65 66 66 71 74 74 83 83 88 82 81 82 73 87 51 80 94 100 99 69 35 24 29 27 23 21 19 19 25 26 22 23 26 26 23 23 26 29 23 25 24 29 29 25 24 27 35
65 68 67 72 76 75 82 83 84 90 83 88 91 96 61 74 100 98 97 58 42 28 31 34 38 25 20 21 24 26 24 22 22 22 33 26 32 40 28 19 17 19 23 25 45 36 27
66 66 68 71 74 78 82 85 83 89 87 95 98 83 90 80 99 98 81 62 39 33 28 35 36 29 27 30 31 26 26 39 36 27 28 30 35 40 34 31 23 25 23 22 25 33 41
66 67 66 68 72 76 80 84 84 82 89 92 99 100 96 100 81 80 68 55 53 36 36 36 33 28 34 36 28 34 35 38 41 31 50 44 34 51 38 44 35 37 26 23 29 50 38
68 68 69 73 74 76 80 80 83 86 88 98 99 86 74 98 96 85 65 44 48 53 36 40 51 43 38 40 35 38 38 42 40 49 38 37 41 77 42 31 33 34 32 28 43 32 44
69 71 72 72 73 74 78 81 83 81 86 99 100 86 60 54 56 92 76 79 58 40 46 44 46 39 41 50 42 57 56 64 64 44 39 40 57 79 100 34 32 41 34 28 39 36 40
68 71 72 70 72 74 76 78 84 80 87 99 98 88 50 50 53 64 89 61 58 39 37 36 42 46 54 48 55 69 62 55 65 71 56 57 95 83 83 40 37 55 68 50 37 30 31
70 69 67 68 73 82 78 79 84 86 83 98 94 87 81 61 44 49 43 54 53 48 85 45 44 60 55 56 69 74 73 66 59 48 45 71 84 57 62 57 74 50 31 30 40 35 24
72 67 66 67 72 76 76 74 84 88 79 95 85 81 87 72 33 37 39 36 50 48 70 57 58 59 58 62 87 98 96 89 64 47 48 57 54 57 72 58 40 29 28 33 37 36 24
73 67 66 68 72 76 77 82 83 84 94 94 82 72 86 76 59 29 36 36 46 59 55 55 49 54 63 71 91 93 80 54 43 44 38 48 58 69 54 61 55 31 28 26 30 69 27
73 72 70 70 72 76 78 90 86 86 90 92 96 76 90 94 50 42 53 40 36 58 64 62 66 71 61 67 79 64 49 30 47 47 65 66 70 71 56 54 38 22 27 31 65 49 30
74 73 73 74 73 76 79 89 90 92 89 88 95 78 80 83 72 52 37 47 37 36 67 63 79 79 69 77 66 47 43 39 38 30 45 52 61 61 51 54 49 23 35 52 37 40 36
74 74 76 75 73 78 78 88 89 92 86 77 94 83 83 87 97 54 53 53 54 45 43 46 59 45 57 48 36 31 44 42 41 60 27 51 40 43 38 40 32 28 34 37 34 36 38

GFSGBSN_sfc_rhum_144.txt.gz
RH
90 93 93 94 95 95 94 93 93 93 93 93 92 92 91 90 91 91 92 92 93 93 93 92 90 89 62 37 29 19 49 41 17 14 12 11 12 11 12 9 9 10 8 8 9 10 10
91 91 93 94 94 93 95 96 95 95 95 95 95 94 93 92 92 93 94 95 95 95 94 93 90 94 52 54 21 20 20 18 17 15 12 10 10 9 12 11 11 11 10 9 8 9 9
91 92 92 92 93 93 95 96 96 94 95 96 97 96 96 94 94 95 95 94 95 95 95 93 89 64 58 50 23 21 22 22 17 14 14 10 10 10 11 12 9 10 11 9 8 8 9
86 91 92 93 93 94 93 94 94 94 95 92 93 94 95 94 93 93 96 96 95 96 95 92 89 66 64 27 24 25 24 24 20 18 15 12 11 12 12 11 11 10 10 12 7 8 10
81 84 89 92 93 94 94 94 92 91 92 95 94 94 94 92 92 92 94 93 96 96 95 88 73 66 59 40 32 26 24 28 24 23 18 11 12 16 14 16 14 12 12 10 11 9 9
74 82 82 85 91 94 94 93 93 92 94 96 95 94 96 96 95 95 96 96 93 89 78 63 59 67 46 36 26 23 16 22 27 26 20 18 18 21 18 15 16 12 13 10 9 11 11
74 76 80 84 85 89 89 90 91 93 94 96 97 95 96 94 96 98 98 99 96 93 84 62 50 51 32 31 23 24 18 23 27 26 28 21 24 22 16 14 10 12 12 12 9 10 12
80 77 75 76 79 82 85 84 88 90 92 95 97 96 97 97 97 97 99 97 86 62 85 56 54 46 37 30 37 26 19 32 30 29 24 25 28 18 13 15 15 14 14 13 9 8 11
77 80 79 76 75 79 78 82 84 85 87 92 97 97 95 94 97 99 95 82 69 76 95 66 46 45 42 36 40 36 22 26 26 28 25 28 21 16 16 17 17 16 16 14 12 10 12
76 81 80 80 79 80 79 79 80 82 86 91 92 92 94 95 97 85 89 66 76 90 97 61 46 42 36 35 43 29 28 30 29 30 26 26 19 20 21 22 18 24 14 12 13 15 18
74 74 76 77 80 86 83 80 79 83 82 85 86 86 93 95 71 80 58 69 82 86 93 26 29 24 27 39 29 31 26 34 39 32 29 33 26 25 27 24 22 25 17 16 16 19 22
71 71 70 72 81 85 86 84 80 81 84 84 83 81 86 95 82 77 53 69 79 95 87 30 31 33 35 33 31 23 28 30 33 40 34 28 20 22 25 21 19 15 19 20 20 22 31
72 72 70 73 77 82 84 85 84 81 81 83 83 82 89 82 72 62 74 86 97 85 28 27 25 23 30 34 37 31 30 37 45 56 54 32 28 24 19 22 18 19 24 36 37 36 35
66 70 71 70 73 77 82 85 86 83 81 81 84 83 78 82 82 89 85 90 97 42 34 16 18 20 30 27 31 34 31 35 35 38 38 47 51 31 24 26 23 23 24 37 34 36 26
63 66 68 70 71 72 75 83 84 86 82 80 81 82 79 69 78 96 95 100 69 41 23 25 19 26 30 25 27 32 33 32 28 37 44 31 34 20 22 22 20 23 29 20 33 32 40
60 64 66 69 70 73 73 75 82 87 85 82 80 79 65 68 82 98 99 96 60 31 26 24 28 25 28 26 30 31 30 24 27 27 30 33 43 21 22 21 21 22 20 44 42 46 43
66 66 67 68 69 71 73 76 77 84 91 86 94 98 55 62 86 100 100 96 52 29 25 26 26 23 22 28 32 33 26 20 24 23 25 27 35 29 25 29 27 29 36 30 29 34 40
68 67 68 69 70 71 73 76 76 82 90 96 96 100 53 69 100 100 99 69 53 37 28 29 30 34 30 26 26 30 31 25 19 24 32 32 44 47 28 19 17 22 32 30 59 39 36
68 69 68 69 70 71 70 75 78 81 86 99 99 98 78 72 96 98 80 66 50 43 37 48 43 29 28 32 35 27 32 41 35 26 35 38 49 57 40 30 23 25 25 25 32 43 49
70 71 68 65 68 71 73 78 80 81 84 97 100 100 99 98 68 67 79 59 58 40 38 35 40 44 35 35 30 34 27 41 38 31 51 50 40 58 51 38 41 43 28 25 30 54 45
73 73 72 71 71 71 73 76 80 82 84 98 100 100 91 98 91 74 59 54 49 53 39 36 50 55 49 53 46 39 43 45 42 49 37 47 52 85 47 42 40 44 44 38 40 32 48
73 74 74 73 74 71 71 77 80 80 84 99 100 100 87 62 68 68 65 75 58 38 42 44 49 42 45 54 56 82 84 62 49 39 42 43 63 84 98 37 34 47 41 41 46 49 47
74 74 74 74 74 68 70 77 79 82 83 100 100 90 98 66 61 74 73 58 57 52 41 33 36 44 47 43 60 56 68 77 65 63 68 81 98 80 70 43 46 85 62 53 42 32 33
75 74 74 72 70 68 71 76 80 81 84 98 98 93 97 95 64 59 52 50 50 49 75 43 36 44 39 60 70 66 66 70 78 68 67 90 98 87 72 59 80 58 30 30 39 37 31
78 76 70 70 72 72 74 75 78 79 78 96 94 98 97 95 81 41 43 46 47 46 58 63 68 66 61 69 93 100 99 98 84 70 81 71 77 82 74 62 51 35 29 34 41 41 26
79 75 71 73 72 74 76 77 76 76 79 93 96 90 96 93 79 45 40 38 52 61 58 54 68 80 72 77 95 90 83 79 77 73 53 63 66 78 70 68 65 40 22 22 24 67 30
80 76 74 73 73 75 76 78 76 75 79 91 96 84 98 95 61 75 82 60 32 42 61 57 75 96 88 90 82 74 73 51 80 64 85 91 96 92 78 75 49 25 22 27 61 61 33
79 77 74 73 74 76 77 79 76 81 81 90 97 89 94 92 59 50 55 66 42 37 73 59 77 84 88 79 63 73 89 61 58 45 60 56 64 71 60 65 63 22 25 46 52 50 42
79 77 75 74 75 77 81 78 78 86 84 87 98 94 84 91 83 76 68 62 53 52 63 70 70 69 67 75 58 50 65 58 51 63 32 67 49 58 44 50 41 37 42 43 40 44 46